DELTA 1 DEB, 10841

Orbit data source: Space-Track

DELTA 1 DEB, 10841 is space debris in SSO originally from a launch on Thu, 29 Jul 1976 UTC launched from the Air Force Western Test Range (AFWTR). Debris objects in space refer to the collection of defunct objects orbiting the Earth. Examples of debris include non-operational satellites, rocket bodies, and fragments generated from explosions, collisions, or faulty payload assembly.

Loading next visibility...
Identifier
10841, 1976-077CM
Orbit
SSO
Country
Flag of USUS
Related business
Manufacturer
Unknown
Mission
Spacecraft
Bus & Motor
Unknown
Mass
Unknown
Launch date (UTC)
1976-07-29 (50 years ago)
Launch vehicle
Unknown
Launch site
Air Force Western Test Range (AFWTR)
Object type
Payload
Rocket body
Debris
Shape & HBR
Unknown shape, 0.1 m
Radar Cross Section
Small (<0.1 m²)

Expand to show TLE details & history
Last TLE update: 1 day ago

TLE from 1 day ago
0 DELTA 1 DEB
1 10841U 76077CM  26033.42687126 -.00000026  00000-0  12529-3 0  9992
2 10841 101.9367  18.2465 0066348  14.6733 140.2201 12.53063377262760
Epoch: 2026-02-02T10:14Z
TLE epoch observation values (Epoch: 2026-02-02T10:14:41.676Z)
Latitude
24.08106°
Longitude
-82.65461°
Altitude
1,494.385 km
Speed
7.101 km/s
True Right ascension
13h 34m 33s
True Declination
23° 57' 55"
Sunlit
Object was in daylight at epoch
Visualization orbit readout
Latitude
Unknown
Longitude
Unknown
Altitude
Unknown
Speed
Unknown
Apparent Right ascension
Unknown
Apparent Declination
Unknown
Sunlit
N/A
Visualization observer readout
Local Sidereal Time
11:42:58
Azimuth
Unknown
Elevation
Unknown
Doppler factor
Unknown
Orbital elements
Apogee altitude
1,501.195 km
Perigee altitude
1,397.328 km
Semi-major axis
7,827.398 km
Eccentricity
0.00663
Inclination
101.9367°
RAAN
18.2465°
Arg. of periapsis
14.6733°
True anomaly
140.70348°
Mean anomaly
140.2201°
Eccentric anomaly
140.4621°
Mean motion
3.13413 °/min
Orbital period
114.86 mins
BSTAR
0.00012529
Loading maneuver chart data...
Computing Atmospheric mass density...
Loading historical data...
Loading historical data...
Loading historical data...
Loading historical data...
Loading historical data...
Loading historical data...
Loading historical data...

Documentation

Showing up to 5 results
|